GW4262 Weather Reports


Display with metric or nautical units.
time (UTC)temp
F
wind
direction
speed
MPH
gust
MPH
rain 1hr
in
rain 24hr
in
rain mn
in
humidity
%
barometer
mb
20260508174510 68 133 1.0 4.0 0.00 0.00 0.00 40 1016.3
20260508173012 67 271 1.0 3.0 0.00 0.00 0.00 38 1016.6
20260508171518 69 28 0.0 3.0 0.00 0.00 0.00 30 1016.8
20260508170024 67 88 1.0 4.0 0.00 0.00 0.00 37 1017.0
20260508164528 68 294 1.0 5.0 0.00 0.00 0.00 35 1017.3
20260508163012 67 264 1.0 6.0 0.00 0.00 0.00 37 1017.5
20260508161516 66 90 1.0 3.0 0.00 0.00 0.00 34 1017.6
20260508160025 66 246 0.0 3.0 0.00 0.00 0.00 43 1017.8
20260508154526 66 140 2.0 4.0 0.00 0.00 0.00 37 1018.0
20260508153037 66 166 1.0 3.0 0.00 0.00 0.00 40 1018.1
20260508151515 64 239 0.0 3.0 0.00 0.00 0.00 41 1018.0
20260508150038 63 269 1.0 3.0 0.00 0.00 0.00 47 1018.1
20260508144525 63 121 0.0 3.0 0.00 0.00 0.00 47 1018.3
20260508143025 62 274 1.0 4.0 0.00 0.00 0.00 50 1018.4
20260508141530 61 167 0.0 3.0 0.00 0.00 0.00 44 1018.3
20260508140024 60 13 1.0 3.0 0.00 0.00 0.00 42 1018.3
20260508134520 58 255 0.0 4.0 0.00 0.00 0.00 50 1018.3
20260508133024 56 232 1.0 3.0 0.00 0.00 0.00 54 1018.3
20260508131525 55 231 2.0 3.0 0.00 0.00 0.00 58 1018.3
20260508130013 52 238 1.0 2.0 0.00 0.00 0.00 63 1018.2
20260508124520 50 256 0.0 0.0 0.00 0.00 0.00 79 1018.2
20260508123004 48 256 0.0 0.0 0.00 0.00 0.00 83 1018.1
20260508121508 46 256 0.0 0.0 0.00 0.00 0.00 89 1018.1
20260508120028 0 0.0 0.0 0.00 0.00 0.00 1017.9
20260508114529 0 0.0 0.0 0.00 0.00 0.00 1017.6
20260508113031 0 0.0 0.0 0.00 0.00 0.00 1017.3
20260508111530 0 0.0 0.0 0.00 0.00 0.00 1017.1
20260508110030 0 0.0 0.0 0.00 0.00 0.00 1016.9
20260508104529 0 0.0 0.0 0.00 0.00 0.00 1016.7
20260508103029 0 0.0 0.0 0.00 0.00 0.00 1016.3
20260508101526 0 0.0 0.0 0.00 0.00 0.00 1016.1
20260508100035 0 0.0 0.0 0.00 0.00 0.00 1016.0
20260508094528 0 0.0 0.0 0.00 0.00 0.00 1016.0
20260508093035 0 0.0 0.0 0.00 0.00 0.00 1015.9
20260508091517 43 256 0.0 2.0 0.00 0.00 0.00 90 1015.8
20260508090019 43 256 0.0 0.0 0.00 0.00 0.00 90 1015.8
20260508084522 44 256 0.0 0.0 0.00 0.00 0.00 89 1015.7
20260508083024 44 256 0.0 2.0 0.00 0.00 0.00 88 1015.6
20260508081512 44 256 0.0 2.0 0.00 0.00 0.00 89 1015.6
20260508080029 45 256 0.0 2.0 0.00 0.00 0.00 88 1015.5
20260508074520 45 256 0.0 2.0 0.00 0.00 0.00 88 1015.4
20260508073026 45 256 0.0 2.0 0.00 0.00 0.00 86 1015.2
20260508071511 46 256 0.0 2.0 0.00 0.00 0.00 84 1015.0
20260508070020 47 256 0.0 2.0 0.00 0.00 0.00 83 1014.9
20260508064536 48 256 0.0 1.0 0.00 0.00 0.00 80 1014.8
20260508063030 49 239 0.0 2.0 0.00 0.00 0.00 78 1014.8
20260508061532 50 141 0.0 2.0 0.00 0.00 0.00 74 1014.6
20260508060011 52 140 0.0 2.0 0.00 0.00 0.00 70 1014.6
20260508054532 54 137 0.0 2.0 0.00 0.00 0.00 67 1014.6
20260508053020 55 186 1.0 4.0 0.00 0.00 0.00 59 1014.6
20260508051530 55 42 2.0 4.0 0.00 0.00 0.00 66 1014.4
20260508050028 55 22 1.0 4.0 0.00 0.00 0.00 64 1014.4
20260508044512 56 101 0.0 2.0 0.00 0.01 0.00 61 1014.1
20260508043020 56 159 1.0 5.0 0.00 0.02 0.00 61 1013.8
20260508041524 56 360 1.0 7.0 0.00 0.03 0.00 65 1013.7
20260508040040 54 5 1.0 4.0 0.00 0.06 0.00 67 1013.9
20260508034538 54 5 0.0 4.0 0.00 0.06 0.06 71 1014.0
20260508033017 52 92 1.0 2.0 0.00 0.06 0.06 77 1013.9
20260508031521 51 155 1.0 5.0 0.00 0.06 0.06 74 1014.0
20260508030024 51 242 1.0 2.0 0.00 0.06 0.06 79 1014.0
20260508024530 51 276 0.0 2.0 0.00 0.06 0.06 77 1013.8
20260508023026 53 339 0.0 2.0 0.00 0.06 0.06 74 1013.6
20260508021532 54 117 1.0 2.0 0.00 0.07 0.06 71 1013.3
20260508020022 55 127 1.0 4.0 0.00 0.07 0.06 70 1013.2
20260508014524 55 161 0.0 7.0 0.00 0.08 0.06 68 1013.0
20260508011517 57 99 1.0 3.0 0.00 0.09 0.06 65 1012.7
20260508010026 57 20 1.0 9.0 0.00 0.13 0.06 61 1012.4
20260508004507 57 340 1.0 6.0 0.00 0.15 0.06 61 1012.2
20260508003009 58 32 0.0 4.0 0.00 0.16 0.06 62 1012.1
20260508001514 58 46 2.0 5.0 0.00 0.22 0.06 60 1011.9
20260508000017 59 10 3.0 10.0 0.00 0.27 0.06 59 1011.5
20260507234530 59 34 4.0 15.0 0.00 0.28 0.06 58 1011.0
20260507233004 60 352 4.0 27.0 0.00 0.31 0.06 59 1010.8
20260507231508 60 277 4.0 17.0 0.00 0.32 0.06 59 1010.5
20260507230017 61 325 4.0 15.0 0.00 0.33 0.06 60 1010.5
20260507224519 62 360 4.0 12.0 0.00 0.33 0.06 62 1010.6
20260507223024 62 308 3.0 9.0 0.00 0.33 0.06 61 1010.3
20260507221506 63 329 4.0 11.0 0.00 0.34 0.06 60 1010.0
20260507220013 64 63 3.0 14.0 0.00 0.34 0.06 64 1009.7
20260507214517 66 13 4.0 10.0 0.00 0.34 0.06 61 1009.5
20260507213028 67 220 4.0 17.0 0.00 0.34 0.06 59 1009.4
20260507211528 68 336 4.0 13.0 0.00 0.34 0.06 59 1009.3
20260507210010 68 352 1.0 8.0 0.00 0.34 0.06 60 1009.2
20260507204513 69 360 3.0 11.0 0.00 0.34 0.06 58 1009.2
20260507203019 69 337 4.0 13.0 0.00 0.34 0.06 58 1009.0
20260507201522 71 29 4.0 14.0 0.00 0.34 0.06 57 1009.0
20260507200025 72 26 2.0 8.0 0.00 0.34 0.06 58 1008.8
20260507194528 73 311 3.0 13.0 0.00 0.34 0.06 58 1008.8
20260507193017 73 251 3.0 9.0 0.00 0.34 0.06 57 1008.5
20260507191522 73 57 2.0 15.0 0.00 0.34 0.06 57 1008.7
20260507190040 74 308 2.0 8.0 0.00 0.34 0.06 57 1009.0
20260507184541 74 30 4.0 12.0 0.00 0.34 0.06 58 1009.0
20260507183017 75 263 3.0 9.0 0.00 0.34 0.06 55 1009.0
20260507181520 75 304 3.0 10.0 0.00 0.34 0.06 56 1009.2
20260507180022 74 346 1.0 5.0 0.00 0.34 0.06 61 1009.2